{"data":{"norad_id":27056,"epoch":"2026-09-19T23:31:27.355872Z","epoch_age_seconds":56560,"freshness":"FRESH","line1":"1 27056U 01058B   26262.98017773  .00000027  00000+0  94357-4 0  9994","line2":"2 27056  82.5404 159.2490 0007077  27.1676  35.0607 12.60566649137721","mean_motion":12.60566649,"eccentricity":0.0007077,"inclination_deg":82.5404,"raan_deg":159.249,"arg_perigee_deg":27.1676,"mean_anomaly_deg":35.0607,"bstar":9.4357e-5,"rev_number":13772,"period_min":114.23434065484,"perigee_km":1415.0872602515,"apogee_km":1426.1256017037,"semimajor_km":7798.7434309776,"source":"CELESTRAK","updated_at":"2026-09-20T09:00:13.579622Z"}}